Location: Oulou
(10.7667°N, 12.5167°W)
Time: 06:59:33
(UTC+00:00)

CZ-4 R/B - Pass Details

Date: 20 September 2019
Orbit: 532 x 598 km, 97.8° (Epoch: 17 October)

Event Time Altitude Azimuth Distance (km) Brightness Sun altitude
Rises 19:33:43 0° 173° (S) 2,664 4.7 -12.1°
Reaches altitude 10° 19:35:49 10° 175° (S) 1,775 3.8 -12.7°
Maximum altitude 19:39:37 68° 259° (WSW) 574 1.6 -13.6°
Drops below altitude 10° 19:43:27 10° 342° (NNW) 1,787 4.2 -14.5°
Sets 19:45:35 0° 345° (NNW) 2,684 5.1 -15.1°
